Cortez, CO

7:44 PM MST on January 19, 2017 (GMT -0700)
Cortez Municipal

Weather History for KCEZ - June, 2012

Change the Weather History Date:

Saturday, June 9, 2012

  Actual Average Record
Temperature  
Mean Temperature 70 °F 62 °F  
Max Temperature 89 °F 83 °F 96 °F (2013)
Min Temperature 51 °F 42 °F 30 °F (2008)
Degree Days  
Heating Degree Days 0 4  
Month to date heating degree days 0 42  
Since 1 June heating degree days 0 42  
Since 1 July heating degree days 5916 6409  
Cooling Degree Days 5 1  
Month to date cooling degree days 36 9  
Year to date cooling degree days 45 14  
Since 1 June cooling degree days 36 9  
Growing Degree Days 21 (Base 50)    
Moisture  
Dew Point 20 °F    
Average Humidity 19    
Maximum Humidity 30    
Minimum Humidity 7    
Precipitation  
Precipitation 0.00 in 0.01 in 0.00 in (2017)
Month to date precipitation 0.00 0.18  
Year to date precipitation 2.42 5.32  
Sea Level Pressure  
Sea Level Pressure 29.64 in    
Wind  
Wind Speed 12 mph (SSW)    
Max Wind Speed 24 mph    
Max Gust Speed 31 mph    
Visibility 10 miles    
Events      
T = Trace of Precipitation, MM = Missing Value Source: NWS Daily Summary

Daily Weather History Graph

Daily Weather History Graph

Search for Another Location

Airport or City:

Trip Planner

Search our weather history database for the weather conditions in past years. The results will help you decide how hot, cold, wet, or windy it might be!

Date:

Astronomy

Jun. 09, 2012 Rise Set
Actual Time 5:53 AM MDT 8:34 PM MDT
Civil Twilight 5:22 AM MDT 9:05 PM MDT
Nautical Twilight 4:44 AM MDT 9:43 PM MDT
Astronomical Twilight 4:01 AM MDT 10:26 PM MDT
Moon 12:04 AM MDT (6/9) 11:36 AM MDT (6/9)
Length of Visible Light 15h 42m
Length of Day
14h 40m
Waning Gibbous, 67% of the Moon is Illuminated
Jun 9
Waning Gibbous
Jun 11
Last Quarter
Jun 19
New
Jun 26
First Quarter
Jul 3
Full

Hourly Weather History & Observations

Time (MDT) Temp. Dew Point Humidity Pressure Visibility Wind Dir Wind Speed Gust Speed Precip Events Conditions
1:53 AM 57.9 °F 19.9 °F 23% 29.69 in 10.0 mi Calm Calm - N/A   Clear
2:53 AM 64.9 °F 17.1 °F 16% 29.65 in 10.0 mi South 15.0 mph - N/A   Clear
3:53 AM 63.0 °F 19.0 °F 18% 29.66 in 10.0 mi South 12.7 mph - N/A   Clear
4:53 AM 57.9 °F 19.0 °F 22% 29.69 in 10.0 mi Calm Calm - N/A   Clear
5:53 AM 54.0 °F 21.9 °F 29% 29.72 in 10.0 mi NE 6.9 mph - N/A   Clear
6:53 AM 55.9 °F 24.1 °F 29% 29.74 in 10.0 mi East 4.6 mph - N/A   Clear
7:53 AM 64.0 °F 28.0 °F 26% 29.73 in 10.0 mi Calm Calm - N/A   Clear
8:53 AM 73.9 °F 17.1 °F 12% 29.73 in 10.0 mi SSW 18.4 mph 25.3 mph N/A   Clear
9:53 AM 77.0 °F 17.1 °F 10% 29.72 in 10.0 mi SSW 16.1 mph 23.0 mph N/A   Clear
10:53 AM 80.1 °F 17.1 °F 9% 29.71 in 10.0 mi SSW 18.4 mph 21.9 mph N/A   Clear
11:53 AM 82.0 °F 16.0 °F 8% 29.67 in 10.0 mi SSE 5.8 mph 17.3 mph N/A   Clear
12:53 PM 84.0 °F 17.1 °F 8% 29.67 in 10.0 mi South 15.0 mph 23.0 mph N/A   Clear
1:53 PM 86.0 °F 16.0 °F 7% 29.64 in 10.0 mi SSW 19.6 mph 24.2 mph N/A   Clear
2:53 PM 87.1 °F 17.1 °F 8% 29.59 in 10.0 mi SW 17.3 mph 29.9 mph N/A   Clear
3:53 PM 88.0 °F 18.0 °F 8% 29.57 in 10.0 mi South 13.8 mph 25.3 mph N/A   Clear
4:53 PM 86.0 °F 18.0 °F 8% 29.57 in 10.0 mi WSW 17.3 mph 21.9 mph N/A   Clear
5:53 PM 86.0 °F 21.0 °F 9% 29.57 in 10.0 mi SW 11.5 mph 25.3 mph N/A   Clear
6:53 PM 86.0 °F 19.0 °F 8% 29.55 in 10.0 mi SW 18.4 mph 24.2 mph N/A   Clear
7:53 PM 82.0 °F 21.0 °F 10% 29.53 in 10.0 mi SW 12.7 mph - N/A   Clear
8:53 PM 71.1 °F 25.0 °F 18% 29.54 in 10.0 mi South 10.4 mph - N/A   Clear
9:53 PM 69.1 °F 23.0 °F 18% 29.56 in 10.0 mi SSW 10.4 mph - N/A   Clear
10:53 PM 73.9 °F 19.9 °F 13% 29.56 in 10.0 mi SSW 18.4 mph - N/A   Clear
11:53 PM 69.1 °F 21.0 °F 16% 29.57 in 10.0 mi SSW 13.8 mph - N/A   Clear